User: anonymous   Login
Location: Twentynine Palms Airport
(34.1316°N, 115.9458°W)
Time: 23:58:07
(UTC-07:00)
Language:

Oscar 19 - Orbit

View from above orbital plane
View from above orbital plane
View from above satellite
View from above satellite

Ground track
Ground track

The orbit data is extracted from the following two-line orbital elements,

1 20442U 90005G   14298.82359625  .00000408  00000-0  16582-3 0   921
2 20442 098.4886 234.0174 0012959 120.2512 239.9957 14.32609693293389
Epoch (UTC): 25 October 2014 19:45:58
Eccentricity: 0.0012959
inclination: 98.4886°
perigee height: 774 km
apogee height: 792 km
right ascension of ascending node: 234.0174°
argument of perigee: 120.2512°
revolutions per day: 14.32609693
mean anomaly at epoch: 239.9957°
orbit number at epoch: 29338

The dashed part of the orbit path shows where the satellite is in the earth's shadow,  

DLR